Regional Weather Roundup
Issued by NWS

Home | Current Version | Previous Version | Graphics & Text | Print | Product List | Glossary On
Versions: 1 2 3 4 5 6 7 8 9 10 11 12 13 14 15 16 17 18 19 20 21 22 23 24 25 26 27 28 29 30 31 32 33 34 35 36 37 38 39 40 41 42 43 44 45 46 47 48 49 50
000
ASUS45 KABQ 140810
RWRNM
NEW MEXICO REGIONAL WEATHER ROUNDUP
NATIONAL WEATHER SERVICE ALBUQUERQUE NM
100 AM MST SUN FEB 14 2016

NOTE: "FAIR" MEANS FEW OR NO CLOUDS BELOW 12,000 FEET AGL WITH NO
       SIGNIFICANT WEATHER OR OBSTRUCTIONS TO VISION.

      THIS PRODUCT IS RELEASED AS TWO VERSIONS.  ONE VERSION NEAR
      THE TOP OF THE HOUR CONTAINING PRELIMINARY DATA FROM ALBUQUERQUE
      AND OTHER STATIONS.  A FINAL VERSION WITH ADDITIONAL DATA IS
      ISSUED ABOUT 10 MINUTES AFTER THE HOUR.

NMZ501-503-504-510>518-140900-
NORTHWEST PLATEAU/NORTHCENTRAL MOUNTAINS

CITY           SKY/WX    TMP DP  RH WIND       PRES   REMARKS
FARMINGTON     FAIR      37  25  61 W8        30.14F WCI  31
LOS ALAMOS     FAIR      41  11  29 SW3       30.15R
SANTA FE       FAIR      39  16  39 N5        30.10R
TAOS           FAIR      30  19  64 N9        30.15S WCI  22
ANGEL FIRE     FAIR      30  15  53 CALM      30.16S

$$
NMZ402-403-502-505>509-140900-
WESTCENTRAL MOUNTAINS/SOUTHWEST MOUNTAINS

CITY           SKY/WX    TMP DP  RH WIND       PRES   REMARKS
GALLUP         FAIR      24  18  77 CALM      30.19F
GRANTS         FAIR      25  13  62 NW10      30.20F WCI  15
SILVER CITY      N/A     48  10  21 NW12      30.14S

$$
NMZ407-409-411-412-140900-
SOUTHERN DESERTS

CITY           SKY/WX    TMP DP  RH WIND       PRES   REMARKS
LORDSBURG      FAIR      41  14  33 CALM      30.09F
DEMING         FAIR      41  12  30 CALM      30.08F
LAS CRUCES     FAIR      45  11  24 W7        30.08S
HOLLOMAN AFB   FAIR      39   7  26 NW2       30.04R
ALAMOGORDO     FAIR      48  10  21 NE7       30.05R
T OR C         FAIR      51  11  20 NW14      30.08F

$$
NMZ519>523-140900-
CENTRAL VALLEYS/CENTRAL HIGHLANDS

CITY           SKY/WX    TMP DP  RH WIND       PRES   REMARKS
ALBUQUERQUE    FAIR      49  13  23 NW7       30.10F
DOUBLE EAGLE   FAIR      42  13  30 NW7       30.11F
MORIARTY ARPT  FAIR      41   6  23 NW5       30.11F
CLINES CORNERS FAIR      35  16  45 NW7       30.09F WCI  29
BELEN          FAIR      40  13  32 CALM      30.11S
SOCORRO        FAIR      42   7  23 CALM      30.10F

$$
NMZ524>526-539-540-140900-
SOUTHCENTRAL MOUNTAINS

CITY           SKY/WX    TMP DP  RH WIND       PRES   REMARKS
RUIDOSO          N/A     46   7  19 NW8       30.14F

$$
NMZ527>531-140900-
NORTHEAST HIGHLANDS/NORTHEAST PLAINS

CITY           SKY/WX    TMP DP  RH WIND       PRES   REMARKS
LAS VEGAS      FAIR      36  10  34 CALM      30.06F
RATON          FAIR      31  13  47 NE8       30.03R WCI  23
CLAYTON        FAIR      47  14  26 W12       29.97R

$$
NMZ532>537-140900-
EASTCENTRAL PLAINS

CITY           SKY/WX    TMP DP  RH WIND       PRES   REMARKS
TUCUMCARI      FAIR      38  19  46 CALM      29.93S
CANNON AFB     FAIR      44  16  32 NW7       29.95F
CLOVIS AIRPORT FAIR      43  18  36 W13       29.96S

$$
NMZ028-029-538-140900-
SOUTHEAST PLAINS

CITY           SKY/WX    TMP DP  RH WIND       PRES   REMARKS
ROSWELL        FAIR      43  17  35 N5        29.98S
ARTESIA        FAIR      46  16  29 CALM      29.98R
CARLSBAD       FAIR      43  26  51 N8        29.96F
HOBBS          FAIR      46  39  76 S9        29.99F


$$



USA.gov is the U.S. government's official web portal to all federal, state and local government web resources and services.